LGV327 SEGU-SKRG

Flight info

Callsign LGV327
Flight time 1h 24m
Altitude 39000
Route REGAP2 PAMIS UP533 BOKAN UP778 CLO ISVON4A
Aircraft B737/M-SDE2E3FGHIRWXY/LB1

Departure

Time 2026-04-26 13:09
Airport José Joaquín de Olmedo International Airport (SEGU)

Arrival

Time 2026-04-26 14:33
Airport Jose Maria Córdova International Airport (SKRG)
Time Latitude Longitude Altitude Speed Heading
2026-04-26 13:09 -2.08485 -79.76139 10554 ft 300 kts 44°
2026-04-26 13:09 -2.06921 -79.74616 10783 ft 329 kts 44°
2026-04-26 13:09 -2.05213 -79.72951 10985 ft 356 kts 44°
2026-04-26 13:10 -2.03217 -79.71417 11493 ft 368 kts 31°
2026-04-26 13:10 -2.00980 -79.70137 12266 ft 372 kts 29°
2026-04-26 13:10 -1.98700 -79.68879 13096 ft 377 kts 29°
2026-04-26 13:10 -1.96386 -79.67607 13912 ft 383 kts 30°
2026-04-26 13:11 -1.94038 -79.66305 14647 ft 389 kts 30°
2026-04-26 13:11 -1.91667 -79.64977 15477 ft 392 kts 30°
2026-04-26 13:11 -1.89280 -79.63630 16194 ft 396 kts 30°
2026-04-26 13:11 -1.86897 -79.62280 16827 ft 401 kts 30°
2026-04-26 13:12 -1.84422 -79.60876 17457 ft 406 kts 30°
2026-04-26 13:12 -1.81983 -79.59491 18054 ft 411 kts 30°
2026-04-26 13:12 -1.79457 -79.58056 18607 ft 415 kts 30°
2026-04-26 13:12 -1.76935 -79.56624 19124 ft 418 kts 30°
2026-04-26 13:13 -1.74398 -79.55184 19660 ft 421 kts 30°
2026-04-26 13:13 -1.71844 -79.53734 20192 ft 424 kts 30°
2026-04-26 13:13 -1.69268 -79.52272 20723 ft 427 kts 30°
2026-04-26 13:13 -1.66674 -79.50799 21246 ft 430 kts 30°
2026-04-26 13:14 -1.64064 -79.49318 21759 ft 433 kts 30°
2026-04-26 13:14 -1.61438 -79.47827 22228 ft 436 kts 30°
2026-04-26 13:14 -1.58790 -79.46324 22689 ft 439 kts 30°
2026-04-26 13:14 -1.56139 -79.44799 23143 ft 442 kts 31°
2026-04-26 13:15 -1.53471 -79.43250 23589 ft 445 kts 31°
2026-04-26 13:15 -1.50826 -79.41709 23952 ft 447 kts 31°
2026-04-26 13:15 -1.48134 -79.40140 24318 ft 449 kts 31°
2026-04-26 13:15 -1.46303 -79.39074 24574 ft 450 kts 31°
2026-04-26 13:16 -1.42710 -79.36983 25054 ft 453 kts 31°
2026-04-26 13:16 -1.39981 -79.35397 25400 ft 455 kts 31°
2026-04-26 13:16 -1.37239 -79.33804 25739 ft 457 kts 31°
2026-04-26 13:16 -1.34485 -79.32204 26083 ft 459 kts 31°
2026-04-26 13:17 -1.28950 -79.28990 26726 ft 462 kts 31°
2026-04-26 13:17 -1.26165 -79.27373 27041 ft 464 kts 31°
2026-04-26 13:18 -1.20567 -79.24123 27661 ft 467 kts 31°
2026-04-26 13:18 -1.17752 -79.22488 27940 ft 469 kts 31°
2026-04-26 13:18 -1.12091 -79.19202 28487 ft 472 kts 31°
2026-04-26 13:19 -1.10173 -79.18088 28665 ft 473 kts 31°
2026-04-26 13:19 -1.06399 -79.15896 29001 ft 475 kts 31°
2026-04-26 13:19 -1.03536 -79.14234 29254 ft 476 kts 31°
2026-04-26 13:19 -1.01600 -79.13110 29434 ft 477 kts 31°
2026-04-26 13:20 -0.97796 -79.10902 29779 ft 477 kts 31°
2026-04-26 13:20 -0.94927 -79.09236 30135 ft 476 kts 31°
2026-04-26 13:20 -0.92067 -79.07576 30492 ft 474 kts 31°
2026-04-26 13:20 -0.89221 -79.05924 30797 ft 474 kts 31°
2026-04-26 13:21 -0.86367 -79.04266 31049 ft 475 kts 31°
2026-04-26 13:21 -0.84438 -79.03146 31220 ft 475 kts 31°
2026-04-26 13:21 -0.80651 -79.00948 31636 ft 475 kts 31°
2026-04-26 13:21 -0.77831 -78.99250 31969 ft 474 kts 33°
2026-04-26 13:22 -0.75951 -78.98052 32194 ft 473 kts 34°
2026-04-26 13:22 -0.72307 -78.95657 32579 ft 474 kts 34°
2026-04-26 13:22 -0.69564 -78.93837 32915 ft 474 kts 34°
2026-04-26 13:22 -0.66818 -78.92023 33286 ft 473 kts 34°
2026-04-26 13:23 -0.64072 -78.90219 33655 ft 472 kts 34°
2026-04-26 13:23 -0.61318 -78.88422 34026 ft 472 kts 34°
2026-04-26 13:23 -0.59494 -78.87236 34280 ft 471 kts 34°
2026-04-26 13:23 -0.55821 -78.84852 34708 ft 470 kts 34°
2026-04-26 13:24 -0.54002 -78.83673 34915 ft 470 kts 33°
2026-04-26 13:24 -0.51265 -78.81899 35253 ft 469 kts 33°
2026-04-26 13:24 -0.48530 -78.80126 35554 ft 468 kts 33°
2026-04-26 13:24 -0.45800 -78.78357 35883 ft 467 kts 33°
2026-04-26 13:25 -0.43080 -78.76595 36198 ft 466 kts 33°
2026-04-26 13:25 -0.40364 -78.74835 36488 ft 465 kts 32°
2026-04-26 13:25 -0.37656 -78.73078 36753 ft 465 kts 32°
2026-04-26 13:25 -0.34940 -78.71316 37020 ft 465 kts 32°
2026-04-26 13:26 -0.32235 -78.69561 37311 ft 464 kts 32°
2026-04-26 13:26 -0.29530 -78.67803 37611 ft 463 kts 32°
2026-04-26 13:26 -0.26836 -78.66056 37918 ft 462 kts 32°
2026-04-26 13:26 -0.24141 -78.64308 38183 ft 461 kts 31°
2026-04-26 13:27 -0.21448 -78.62560 38443 ft 461 kts 31°
2026-04-26 13:27 -0.18764 -78.60815 38733 ft 460 kts 31°
2026-04-26 13:27 -0.16081 -78.59072 39037 ft 459 kts 31°
2026-04-26 13:27 -0.13407 -78.57336 39278 ft 458 kts 31°
2026-04-26 13:28 -0.10725 -78.55595 39384 ft 461 kts 31°
2026-04-26 13:28 -0.05331 -78.52096 39391 ft 461 kts 31°
2026-04-26 13:29 -0.00071 -78.48456 39393 ft 459 kts 34°
2026-04-26 13:29 0.05018 -78.44613 39387 ft 457 kts 35°
2026-04-26 13:30 0.10079 -78.40783 39380 ft 456 kts 35°
2026-04-26 13:30 0.15163 -78.36977 39360 ft 457 kts 34°
2026-04-26 13:31 0.20265 -78.33177 39342 ft 458 kts 34°
2026-04-26 13:31 0.25379 -78.29370 39316 ft 459 kts 34°
2026-04-26 13:32 0.30511 -78.25548 39312 ft 460 kts 34°
2026-04-26 13:32 0.35651 -78.21719 39309 ft 462 kts 35°
2026-04-26 13:33 0.40804 -78.17880 39298 ft 462 kts 35°
2026-04-26 13:33 0.45961 -78.14037 39301 ft 463 kts 35°
2026-04-26 13:34 0.51125 -78.10191 39296 ft 463 kts 35°
2026-04-26 13:34 0.56295 -78.06356 39289 ft 463 kts 35°
2026-04-26 13:35 0.61477 -78.02515 39286 ft 463 kts 35°
2026-04-26 13:35 0.66649 -77.98678 39280 ft 464 kts 35°
2026-04-26 13:36 0.71793 -77.94861 39315 ft 463 kts 35°
2026-04-26 13:36 0.76966 -77.91022 39348 ft 464 kts 35°
2026-04-26 13:37 0.82194 -77.87258 39369 ft 463 kts 30°
2026-04-26 13:37 0.87758 -77.84037 39396 ft 462 kts 27°
2026-04-26 13:38 0.93383 -77.80941 39405 ft 462 kts 27°
2026-04-26 13:38 0.99000 -77.77811 39388 ft 462 kts 28°
2026-04-26 13:39 1.04599 -77.74645 39365 ft 462 kts 28°
2026-04-26 13:39 1.10190 -77.71467 39321 ft 462 kts 28°
2026-04-26 13:40 1.15786 -77.68284 39259 ft 462 kts 28°
2026-04-26 13:40 1.21375 -77.65106 39196 ft 462 kts 28°
2026-04-26 13:41 1.26966 -77.61928 39178 ft 463 kts 28°
2026-04-26 13:41 1.32564 -77.58746 39174 ft 463 kts 28°
2026-04-26 13:42 1.38122 -77.55587 39182 ft 463 kts 28°
2026-04-26 13:42 1.43723 -77.52403 39180 ft 463 kts 28°
2026-04-26 13:43 1.49365 -77.49196 39181 ft 464 kts 28°
2026-04-26 13:43 1.54972 -77.46008 39169 ft 464 kts 28°
2026-04-26 13:44 1.60578 -77.42821 39162 ft 463 kts 28°
2026-04-26 13:44 1.66142 -77.39657 39133 ft 463 kts 28°
2026-04-26 13:45 1.71745 -77.36471 39106 ft 463 kts 28°
2026-04-26 13:45 1.77351 -77.33283 39089 ft 463 kts 28°
2026-04-26 13:46 1.82957 -77.30095 39084 ft 464 kts 29°
2026-04-26 13:46 1.88566 -77.26904 39088 ft 464 kts 29°
2026-04-26 13:47 1.94180 -77.23712 39085 ft 465 kts 29°
2026-04-26 13:47 1.99799 -77.20515 39090 ft 465 kts 29°
2026-04-26 13:48 2.05422 -77.17316 39089 ft 465 kts 29°
2026-04-26 13:48 2.11053 -77.14112 39097 ft 466 kts 29°
2026-04-26 13:49 2.16681 -77.10910 39093 ft 466 kts 29°
2026-04-26 13:49 2.22320 -77.07702 39092 ft 466 kts 29°
2026-04-26 13:50 2.27954 -77.04496 39095 ft 466 kts 29°
2026-04-26 13:50 2.33602 -77.01281 39092 ft 467 kts 29°
2026-04-26 13:51 2.39248 -76.98067 39094 ft 467 kts 29°
2026-04-26 13:51 2.44895 -76.94853 39101 ft 467 kts 29°
2026-04-26 13:52 2.50545 -76.91637 39119 ft 468 kts 29°
2026-04-26 13:52 2.56203 -76.88414 39122 ft 468 kts 29°
2026-04-26 13:53 2.61863 -76.85192 39122 ft 468 kts 29°
2026-04-26 13:53 2.67527 -76.81967 39119 ft 468 kts 29°
2026-04-26 13:54 2.73190 -76.78741 39105 ft 469 kts 29°
2026-04-26 13:54 2.78856 -76.75514 39088 ft 469 kts 29°
2026-04-26 13:55 2.86405 -76.71213 39090 ft 470 kts 28°
2026-04-26 13:56 2.95888 -76.65810 39090 ft 470 kts 28°
2026-04-26 13:56 3.01575 -76.62569 39084 ft 470 kts 28°
2026-04-26 13:57 3.07259 -76.59329 39085 ft 470 kts 28°
2026-04-26 13:57 3.12943 -76.56089 39081 ft 470 kts 28°
2026-04-26 13:58 3.18624 -76.52850 39083 ft 470 kts 28°
2026-04-26 13:58 3.24303 -76.49612 39085 ft 470 kts 28°
2026-04-26 13:59 3.29984 -76.46372 39088 ft 470 kts 28°
2026-04-26 13:59 3.35627 -76.43153 39094 ft 470 kts 28°
2026-04-26 14:00 3.47418 -76.37613 39100 ft 468 kts 19°
2026-04-26 14:01 3.53509 -76.35300 39106 ft 468 kts 19°
2026-04-26 14:01 3.59595 -76.32957 39104 ft 468 kts 20°
2026-04-26 14:02 3.65663 -76.30589 39104 ft 468 kts 20°
2026-04-26 14:02 3.71731 -76.28207 39099 ft 468 kts 20°
2026-04-26 14:03 3.77803 -76.25824 39102 ft 468 kts 20°
2026-04-26 14:03 3.83869 -76.23443 39104 ft 469 kts 20°
2026-04-26 14:04 3.89945 -76.21059 39106 ft 469 kts 20°
2026-04-26 14:04 3.96018 -76.18676 39111 ft 469 kts 20°
2026-04-26 14:05 4.02099 -76.16290 39104 ft 469 kts 20°
2026-04-26 14:05 4.08169 -76.13907 39105 ft 469 kts 20°
2026-04-26 14:06 4.14252 -76.11520 39100 ft 469 kts 20°
2026-04-26 14:06 4.20288 -76.09150 39097 ft 470 kts 20°
2026-04-26 14:07 4.26373 -76.06760 39090 ft 470 kts 20°
2026-04-26 14:07 4.32461 -76.04369 39093 ft 470 kts 20°
2026-04-26 14:08 4.38556 -76.01974 39104 ft 470 kts 20°
2026-04-26 14:08 4.44650 -75.99580 39105 ft 471 kts 20°
2026-04-26 14:09 4.50750 -75.97183 39124 ft 471 kts 20°
2026-04-26 14:09 4.56856 -75.94783 39090 ft 471 kts 20°
2026-04-26 14:10 4.62962 -75.92382 39103 ft 472 kts 20°
2026-04-26 14:10 4.69069 -75.89981 39104 ft 472 kts 20°
2026-04-26 14:11 4.77204 -75.86782 39101 ft 472 kts 20°
2026-04-26 14:11 4.84346 -75.83972 39182 ft 472 kts 20°
2026-04-26 14:12 4.89425 -75.81974 39182 ft 471 kts 20°
2026-04-26 14:12 4.92440 -75.80787 39152 ft 458 kts 20°
2026-04-26 14:12 4.95341 -75.79643 39132 ft 437 kts 20°
2026-04-26 14:13 5.00725 -75.77520 39124 ft 396 kts 20°
2026-04-26 14:13 5.03243 -75.76528 38909 ft 385 kts 20°
2026-04-26 14:13 5.05744 -75.75545 38007 ft 391 kts 20°
2026-04-26 14:14 5.08294 -75.74546 37160 ft 396 kts 21°
2026-04-26 14:14 5.10851 -75.73541 36621 ft 394 kts 21°
2026-04-26 14:14 5.13396 -75.72540 36159 ft 389 kts 21°
2026-04-26 14:14 5.15901 -75.71555 35692 ft 384 kts 22°
2026-04-26 14:15 5.18376 -75.70582 35198 ft 381 kts 22°
2026-04-26 14:15 5.20840 -75.69610 34687 ft 379 kts 23°
2026-04-26 14:15 5.23288 -75.68646 34193 ft 377 kts 23°
2026-04-26 14:15 5.25714 -75.67690 33653 ft 374 kts 24°
2026-04-26 14:16 5.28129 -75.66736 33150 ft 371 kts 23°
2026-04-26 14:16 5.30516 -75.65795 32679 ft 367 kts 23°
2026-04-26 14:16 5.32878 -75.64863 32210 ft 363 kts 23°
2026-04-26 14:16 5.35228 -75.63936 31545 ft 365 kts 23°
2026-04-26 14:17 5.37651 -75.62979 30361 ft 384 kts 23°
2026-04-26 14:17 5.40175 -75.61982 29304 ft 393 kts 23°
2026-04-26 14:17 5.42647 -75.60852 28585 ft 388 kts 28°
2026-04-26 14:17 5.45020 -75.59605 28004 ft 381 kts 30°
2026-04-26 14:18 5.47322 -75.58345 27399 ft 375 kts 30°
2026-04-26 14:18 5.49597 -75.57096 26779 ft 371 kts 30°
2026-04-26 14:18 5.51852 -75.55871 26157 ft 367 kts 29°
2026-04-26 14:18 5.54090 -75.54667 25557 ft 363 kts 29°
2026-04-26 14:19 5.56310 -75.53483 24960 ft 359 kts 29°
2026-04-26 14:19 5.58503 -75.52319 24374 ft 355 kts 29°
2026-04-26 14:19 5.60675 -75.51168 23806 ft 351 kts 28°
2026-04-26 14:19 5.62822 -75.50030 23133 ft 348 kts 28°
2026-04-26 14:20 5.64951 -75.48901 22458 ft 344 kts 28°
2026-04-26 14:20 5.67055 -75.47785 21816 ft 340 kts 28°
2026-04-26 14:20 5.69141 -75.46678 21174 ft 338 kts 28°
2026-04-26 14:20 5.71209 -75.45581 20540 ft 335 kts 28°
2026-04-26 14:21 5.73265 -75.44492 19919 ft 333 kts 28°
2026-04-26 14:21 5.75305 -75.43410 19319 ft 330 kts 27°
2026-04-26 14:21 5.77369 -75.42430 18717 ft 327 kts 16°
2026-04-26 14:21 5.79578 -75.42147 18081 ft 324 kts 358°
2026-04-26 14:22 5.81752 -75.42595 17449 ft 319 kts 335°
2026-04-26 14:22 5.83533 -75.43861 16857 ft 313 kts 311°
2026-04-26 14:22 5.84632 -75.45716 16246 ft 309 kts 287°
2026-04-26 14:22 5.84868 -75.47834 15649 ft 306 kts 263°
2026-04-26 14:23 5.84186 -75.49855 15136 ft 300 kts 236°
2026-04-26 14:23 5.82738 -75.51278 15042 ft 287 kts 211°
2026-04-26 14:23 5.80896 -75.51894 14949 ft 276 kts 186°
2026-04-26 14:23 5.79042 -75.51951 14901 ft 265 kts 180°
2026-04-26 14:24 5.77235 -75.51926 14778 ft 256 kts 180°
2026-04-26 14:24 5.75463 -75.51888 14542 ft 254 kts 179°
2026-04-26 14:24 5.73697 -75.51845 14260 ft 254 kts 179°
2026-04-26 14:24 5.71990 -75.51442 13970 ft 255 kts 151°
2026-04-26 14:25 5.70695 -75.50249 13667 ft 255 kts 121°
2026-04-26 14:25 5.70103 -75.48594 13391 ft 252 kts 101°
2026-04-26 14:25 5.69811 -75.46861 13114 ft 252 kts 99°
2026-04-26 14:25 5.69748 -75.45116 12761 ft 252 kts 78°
2026-04-26 14:26 5.70321 -75.43471 12471 ft 249 kts 56°
2026-04-26 14:26 5.71560 -75.42296 12199 ft 247 kts 26°
2026-04-26 14:26 5.73203 -75.41887 11922 ft 244 kts
2026-04-26 14:26 5.74898 -75.41911 11811 ft 244 kts 357°
2026-04-26 14:27 5.76604 -75.41996 11769 ft 246 kts 356°
2026-04-26 14:27 5.78302 -75.42089 11766 ft 244 kts 356°
2026-04-26 14:27 5.79997 -75.42175 11753 ft 243 kts 358°
2026-04-26 14:27 5.81687 -75.42200 11762 ft 243 kts 359°
2026-04-26 14:28 5.83385 -75.42210 11778 ft 244 kts 359°
2026-04-26 14:28 5.85082 -75.42221 11796 ft 245 kts 359°
2026-04-26 14:28 5.86787 -75.42232 11806 ft 245 kts 359°
2026-04-26 14:28 5.88497 -75.42244 11817 ft 246 kts 359°
2026-04-26 14:29 5.90205 -75.42253 11835 ft 245 kts 360°
2026-04-26 14:29 5.91888 -75.42243 11729 ft 240 kts
2026-04-26 14:29 5.93562 -75.42229 11435 ft 241 kts
2026-04-26 14:29 5.95244 -75.42207 11167 ft 241 kts
2026-04-26 14:30 5.96917 -75.42189 10931 ft 240 kts 360°
2026-04-26 14:30 5.98603 -75.42193 10452 ft 248 kts 359°
2026-04-26 14:30 6.00361 -75.42206 10070 ft 254 kts 359°
2026-04-26 14:30 6.02129 -75.42218 9691 ft 254 kts 359°
2026-04-26 14:31 6.03884 -75.42230 9204 ft 249 kts 359°
2026-04-26 14:31 6.05584 -75.42241 8880 ft 239 kts 359°
2026-04-26 14:31 6.07213 -75.42252 8602 ft 228 kts 359°
2026-04-26 14:31 6.08760 -75.42262 8305 ft 217 kts 360°
2026-04-26 14:32 6.10226 -75.42271 8014 ft 202 kts 360°
2026-04-26 14:32 6.11581 -75.42280 7744 ft 187 kts 360°
2026-04-26 14:32 6.12837 -75.42289 7467 ft 174 kts 360°
2026-04-26 14:32 6.13955 -75.42296 7229 ft 153 kts 360°
2026-04-26 14:33 6.14989 -75.42301 6994 ft 142 kts
2026-04-26 14:33 6.15894 -75.42303 6979 ft 113 kts 359°
2026-04-26 14:33 6.16561 -75.42314 6990 ft 78 kts 359°
2026-04-26 14:33 6.16924 -75.42318 7015 ft 23 kts 351°
2026-04-26 14:34 6.17066 -75.42383 7017 ft 22 kts 332°
2026-04-26 14:34 6.17180 -75.42455 7017 ft 16 kts 319°
2026-04-26 14:34 6.17193 -75.42541 7018 ft 12 kts 267°
2026-04-26 14:34 6.17163 -75.42613 7017 ft 12 kts 194°
2026-04-26 14:35 6.17080 -75.42620 7017 ft 12 kts 195°
2026-04-26 14:35 6.17016 -75.42667 7016 ft 11 kts 224°
2026-04-26 14:35 6.16959 -75.42721 7017 ft 11 kts 229°
2026-04-26 14:35 6.16922 -75.42788 7018 ft 11 kts 250°
2026-04-26 14:36 6.16906 -75.42828 7017 ft 2 kts 222°
2026-04-26 14:36 6.16889 -75.42828 7016 ft 3 kts 172°
2026-04-26 14:36 6.16872 -75.42825 7015 ft 2 kts 168°
2026-04-26 14:36 6.16868 -75.42824 7015 ft 0 kts 167°